COSMOS 2251 DEB

Satellite information

Favourite Embed

Satellite Type and Status

DEBRISIN ORBIT

Key statistics

Satellite COSMOS 2251 DEB at a glance.

Uptime

11869

Days in orbit

Revolutions

≈ 14.8

Per day

Orbit

LEO

Low Earth Orbit

Inclination

74.0

Latest

Satellite identification and parameters

Extended collection of information and parameters for COSMOS 2251 DEB.

Object identification

Identified? True

Debris? True

Object name: COSMOS 2251 DEB

International designator: 1993-036LH

Object number (NORAD): 34136

Object ID (CCSDS): 34136

Country: COMMONWEALTH OF INDEPENDENT STATES (CIS)

Current information (Y/N): Y

RCS size: SMALL

Orbital parameters

Period: 97.292 minutes

Inclination: 74.021 deg

SMA: 7007.216 km

Apoapsis: 689.214 km

Periapsis: 568.948 km

RAAN: 43.579 deg

Eccentricy: 0.00858161

Argument of periapsis: 166.6732 deg

Mean anomaly: 256.7734 deg

Mean motion: 14.80077678 rev/day

Mean motion (dot): 0.00005997 rev/day2

B* drag term: 0.000746903 1/REarth

Two-line elements (TLE)

Creation date: Dec. 12, 2025, 10:14 a.m.

Reference frame: TEME

Reference center: EARTH

Epoch: Dec. 12, 2025, 6:14 a.m. UTC

TLE line 0: 0 COSMOS 2251 DEB

TLE line 1: 1 34136U 93036LH 25346.25972594 .00005997 00000-0 74690-3 0 9990

TLE line 2: 2 34136 74.0210 43.5790 0085816 166.6732 256.7734 14.80077678900034

Live tracking on map

Real-time ground track for satellite COSMOS 2251 DEB.

In-orbit conjunctions

A list of the most updated potential collisions computed for object COSMOS 2251 DEB.

Target Orbit TCA Probability of collision Miss distance Type
PEGASUS DEB LEO 2025-07-27 18:27:41 0.0001196927 34.0 (m) DEBRIS
ERS 1 DEB SSO 2025-06-28 19:52:10 0.0001445979 93.0 (m) DEBRIS

Associated space launch

Military communications satellite. Destroyed in a collision with Iridium 33.

COSMOS 2251 DEB was lifted into orbit during the mission ‘Kosmos-3M | Strela-2M 51’, on board a Kosmos-3M space rocket.

The launch took place on June 16, 1993, 4:17 a.m. from 132/1 (132L).

For more information about the launch, click the button.

Launch to space Kosmos-3M | Strela-2M 51
Kosmos-3M | Strela-2M 51

Agency: N/A

Status: Launch Successful

Launch date: June 16, 1993, 4:17 a.m. UTC

Rocket: Kosmos-3M

Launch pad: 132/1 (132L)

Location: Plesetsk Cosmodrome, Russian Federation

...

Latest news about this satellite

There are no fresh news available about this satellite. Check back as we update our databases every day.


Newsletter sign-up

Weekly statistics, charts and insights to help you stay on top of the space industry.